Location: Igon
(43.1667°N, 0.2333°W)
Time: 13:45:34
(UTC+00:00)

Lacrosse 5 - Pass Details

Date: 29 November 2020
Orbit: 713 x 726 km, 57.0° (Epoch: 18 January)

Event Time Altitude Azimuth Distance (km) Brightness Sun altitude
Exits shadow 06:11:22 14° 282° (WNW) 1,926 3.4 -10.7°
Maximum altitude 06:14:49 28° 334° (NNW) 1,330 2.9 -10.1°
Drops below altitude 10° 06:19:10 10° 34° (NE) 2,197 4.5 -9.4°
Sets 06:21:52 0° 46° (NE) 3,120 5.5 -8.9°
